SCP
0 0 0 0 0 0 0 0 0 0 0 0 -0 -0 -0 0 0 0 -0 -0 0 -0 -0 -0 -0 -0 -0 -0 -0 -0 -0 -0 -0 -0 -0 -0 -0 -0 -0 -0 -0 -0 -0
0 0 0 0 0 0 0 0 0 0 0 0 0 0 0 0 0 0 0 0 0 0 -0 -0 -0 -0 -0 -0 -0 -0 -0 -0 -0 -0 -0 -0 -0 -0 -0 -0 -0 -0 -0
0 0 0 0 0 0 0 0 0 0 1 0 0 0 0 -0 -0 0 0 0 0 0 0 0 0 0 -0 -0 -0 -0 -0 -0 -0 0 0 -0 -0 -0 -0 -0 -0 -0 -0
0 0 1 1 0 0 0 0 0 0 0 0 0 0 0 0 0 0 0 0 0 0 0 0 0 -0 -0 -0 -0 -0 -0 -0 -0 0 -0 -0 -0 -0 -0 -0 -0 -0 -0
0 0 0 0 0 0 0 0 0 0 -0 0 0 0 0 0 -0 0 0 0 0 0 0 0 0 -0 -0 -0 -0 -0 -0 -0 0 -0 -0 0 0 -0 -0 -0 -0 -0 -0
0 0 0 -0 0 0 0 -0 0 0 0 0 0 0 0 0 0 0 0 0 0 0 0 0 0 0 -0 -0 -0 -0 -0 0 0 0 0 0 0 -0 -0 -0 -0 -0 -0
0 0 -0 -0 0 0 0 0 0 0 0 0 0 0 0 0 0 0 0 0 0 0 0 0 0 0 0 0 0 0 0 0 0 0 0 0 0 0 0 0 0 -0 -0
0 0 -0 -0 0 0 0 0 -0 0 0 0 0 0 0 0 0 0 0 0 0 0 0 0 0 0 0 0 0 0 0 0 0 0 0 0 0 0 0 0 0 0 -0
0 0 0 -0 -0 0 -0 0 0 -0 0 0 0 0 0 0 0 0 0 0 0 0 0 0 0 0 0 0 0 0 0 0 0 0 0 0 0 0 0 0 0 0 0
0 0 0 0 0 0 0 0 0 0 0 0 0 0 0 0 0 0 0 0 0 0 0 0 0 0 0 0 0 0 0 0 0 0 0 0 0 0 0 0 0 0 0
0 0 0 0 0 0 0 0 0 0 0 0 0 0 0 0 0 0 0 0 0 0 0 0 0 0 0 0 0 0 0 0 0 0 0 0 0 0 0 0 0 0 0
0 0 0 -0 0 0 0 0 0 0 0 0 0 0 0 0 0 0 0 0 0 0 0 0 0 0 0 0 0 0 0 0 0 0 0 0 0 0 0 0 0 0 0
0 0 0 0 -0 -0 0 0 0 0 0 0 0 0 0 0 0 0 0 0 0 0 0 0 0 0 0 0 0 0 0 0 0 0 0 0 0 0 0 0 0 0 0
-0 0 0 0 0 0 0 0 0 0 0 0 0 0 0 0 0 0 0 0 0 0 0 0 0 0 0 0 0 0 0 0 0 0 0 0 0 0 0 0 0 0 0
-0 -0 0 0 0 0 0 0 0 0 0 0 0 0 0 0 0 0 0 0 0 0 0 0 0 0 0 0 0 0 0 0 0 0 0 0 0 0 0 0 0 0 0
0 0 0 0 0 0 0 0 0 0 0 0 0 0 0 0 0 0 0 0 0 0 0 0 0 0 0 0 0 0 0 0 0 0 0 0 0 0 0 0 0 0 0
0 0 0 0 0 0 0 0 0 0 0 0 0 0 0 0 0 0 0 0 0 0 0 0 0 0 0 0 0 0 0 0 0 0 0 0 0 0 0 0 0 0 0
0 0 0 0 0 0 0 0 0 0 0 0 0 0 0 0 0 0 0 0 0 0 0 0 0 0 0 0 0 0 0 0 0 0 0 0 0 0 0 0 0 0 0
0 0 0 0 0 0 0 0 0 0 0 0 0 0 0 0 0 0 0 0 0 0 0 0 0 0 0 0 0 0 0 0 0 0 0 0 0 0 0 0 0 0 0
0 0 0 0 0 0 0 0 0 0 0 0 0 0 0 0 0 0 0 0 0 0 0 0 0 0 0 0 0 0 0 0 0 0 0 0 0 0 0 0 0 0 0
0 0 0 0 0 0 0 0 0 0 0 0 0 0 0 0 0 0 0 0 0 0 0 0 0 0 0 0 0 0 0 0 0 0 0 0 0 0 0 0 0 0 0
0 0 0 0 0 0 0 0 0 0 0 0 0 0 0 0 0 0 0 0 0 0 0 0 0 0 0 0 0 0 0 0 0 0 0 0 0 0 0 0 0 0 0
0 0 0 0 0 0 0 0 0 0 0 0 0 0 0 0 0 0 0 0 0 0 0 0 0 0 0 0 0 0 0 0 0 0 0 0 0 0 0 0 0 0 0
0 0 0 0 0 0 0 0 0 0 0 0 0 0 0 0 0 0 0 0 0 0 0 0 0 0 0 0 0 0 0 0 0 0 0 0 0 0 0 0 0 0 0
0 0 0 0 0 0 0 0 0 0 0 0 0 0 0 0 0 0 0 0 0 0 0 0 0 0 0 0 0 0 0 0 0 0 0 0 0 0 0 0 0 0 0
0 0 0 0 0 0 0 0 0 0 0 0 0 0 0 0 0 0 0 0 0 0 0 0 0 0 0 0 0 0 0 0 0 0 0 0 0 0 0 0 0 0 0
Wind_Speed_500mb
26 30 29 31 28 29 32 31 33 36 39 38 37 36 35 33 33 31 32 31 28 28 28 27 29 31 34 35 30 33 31 31 31 31 33 32 31 31 32 32 32 32 30
25 31 27 27 29 29 34 38 39 41 43 44 44 43 39 33 34 34 36 35 28 26 27 26 32 30 33 35 34 34 33 33 33 32 33 31 29 26 27 28 29 28 26
22 24 25 25 27 30 37 42 44 46 48 48 49 45 44 41 42 41 39 33 26 23 25 25 30 32 31 28 28 28 27 26 28 30 34 30 29 28 25 21 22 25 25
15 21 14 13 24 26 31 39 43 40 56 52 55 52 42 36 29 27 25 21 17 19 19 22 29 31 30 27 24 23 22 21 21 31 30 31 29 27 29 29 25 21 21
25 26 13 11 11 20 33 31 42 45 33 45 48 34 34 30 23 23 21 17 17 17 19 20 24 25 24 19 19 19 19 18 18 25 28 26 21 21 21 24 26 25 24
35 30 21 18 20 15 14 9 52 53 49 47 30 23 18 14 14 17 15 15 17 18 19 19 20 19 20 19 18 19 19 19 18 19 20 16 10 13 10 7 7 12 16
36 31 17 16 14 18 11 16 21 51 38 35 20 13 12 8 10 13 15 17 16 17 18 18 19 18 16 16 17 16 16 14 12 12 12 9 9 12 12 9 7 7 6
34 34 25 22 22 25 27 32 27 22 18 24 21 12 14 15 16 16 16 17 17 16 15 16 17 17 17 16 15 14 13 11 9 7 4 2 3 3 2 3 4 3 2
35 35 37 32 28 20 20 27 31 14 15 15 16 15 14 17 16 15 14 13 14 14 12 12 12 13 14 15 16 15 13 12 11 10 8 6 8 9 8 8 7 5 5
41 39 34 39 32 21 21 27 35 33 27 24 22 21 18 15 12 11 13 12 9 9 11 11 11 12 13 13 14 13 12 11 11 11 12 10 10 11 10 10 10 9 10
48 45 41 38 36 31 34 34 33 34 31 21 17 19 17 15 16 14 11 8 10 9 9 10 10 10 11 11 12 11 11 10 9 8 10 9 9 11 10 8 9 9 10
55 54 50 45 38 34 33 33 38 31 26 21 19 16 18 19 17 14 12 10 8 8 8 8 9 10 10 10 10 10 9 8 8 9 9 7 9 8 3 5 6 5 6
58 57 56 51 47 43 43 39 36 32 28 25 23 20 18 18 17 14 13 11 9 8 7 9 10 10 10 9 9 9 9 9 9 7 6 9 14 14 11 4 11 13 11
62 64 60 56 51 48 46 45 40 37 34 32 28 26 22 19 17 14 13 11 11 11 10 10 11 10 9 8 9 11 11 10 8 5 5 13 17 11 2 21 20 18 19
64 66 67 63 59 56 53 50 47 42 37 34 31 27 25 24 20 17 15 13 13 13 13 13 13 11 11 11 11 11 10 10 9 9 9 18 20 21 21 19 19 16 16
63 71 72 69 65 60 58 55 50 45 40 37 34 32 28 25 22 20 17 17 16 15 15 13 12 11 11 11 11 10 10 11 12 13 14 15 18 20 22 19 18 18 18
65 71 75 73 71 66 64 59 53 49 44 41 37 33 30 28 25 23 22 19 20 17 15 15 14 13 12 12 11 10 11 12 14 16 18 18 18 21 22 21 19 21 22
61 70 75 78 73 68 66 62 58 52 49 46 41 36 33 29 25 23 22 21 20 18 19 17 16 14 14 13 13 12 13 15 16 18 19 20 20 19 20 21 23 27 31
61 67 71 78 78 75 69 65 61 58 53 47 43 40 36 32 30 28 25 23 21 20 19 18 17 16 15 14 14 13 15 18 20 20 20 20 18 17 18 23 27 29 33
59 65 72 80 81 79 73 69 65 61 57 52 48 43 39 36 32 29 27 25 23 21 20 18 17 15 14 13 13 14 15 17 20 21 21 22 19 18 21 28 29 32 35
57 63 72 83 87 87 85 81 74 69 63 59 53 48 43 39 34 32 30 28 26 24 21 20 18 16 16 13 14 13 15 17 20 22 21 21 21 23 26 31 36 38 38
49 59 66 77 87 90 89 86 80 74 68 62 57 55 49 43 38 38 35 30 27 25 22 20 19 16 14 12 13 11 7 8 15 20 26 24 25 27 27 35 40 39 38
33 45 57 66 79 88 88 84 83 79 71 67 65 62 53 46 43 40 37 33 32 28 24 22 19 16 15 14 15 14 6 6 3 15 24 24 22 25 30 38 35 35 34
14 29 42 54 66 79 88 91 88 81 77 72 68 62 56 51 46 43 40 36 31 26 24 22 20 17 16 16 13 12 14 15 7 5 15 19 23 28 33 28 30 28 30
4 14 26 41 58 68 85 86 85 80 73 73 72 66 60 55 51 46 41 35 30 26 24 22 22 20 19 17 14 12 11 12 14 13 12 12 25 28 24 28 25 23 27
15 4 15 31 43 58 75 86 86 84 81 78 69 68 64 58 53 47 41 36 32 29 26 25 24 22 21 19 17 14 13 10 10 10 12 16 25 23 27 18 17 25 23
Wind_Direction_500mb
202 200 199 195 193 189 189 189 185 177 170 166 160 155 144 139 134 131 121 124 127 129 133 126 125 111 115 116 121 118 117 116 114 112 109 105 100 101 98 97 95 98 100
203 199 200 203 204 201 199 198 197 189 179 170 161 155 146 145 142 134 128 122 128 132 125 125 124 131 124 120 122 119 117 113 111 111 105 100 99 99 98 94 93 92 95
195 190 197 211 216 220 208 209 202 194 179 163 157 154 150 145 138 133 133 137 135 113 121 120 124 116 129 135 133 126 121 120 117 110 91 94 101 104 100 101 104 95 92
186 176 173 236 222 214 218 218 212 203 199 178 168 158 148 152 151 148 159 164 152 137 130 131 135 134 140 143 136 129 124 123 124 105 105 100 93 108 108 101 94 102 96
146 159 173 187 137 219 202 220 202 186 125 126 139 154 154 160 166 174 179 176 164 155 144 140 140 147 149 146 141 138 129 126 131 108 123 117 104 107 122 126 118 113 107
149 143 154 134 141 101 92 37 168 144 133 137 138 145 152 155 180 177 177 166 160 160 157 150 145 148 150 151 148 138 130 126 127 118 95 114 111 93 106 112 109 117 111
168 159 169 186 151 151 122 121 53 105 124 129 134 153 124 133 151 156 150 146 151 149 154 158 161 162 157 157 157 151 144 137 134 131 115 100 90 83 80 76 85 111 135
169 174 166 175 165 135 126 120 134 111 112 134 149 174 172 183 178 164 161 157 154 153 155 157 158 165 170 175 177 176 174 172 174 173 165 274 327 330 291 320 326 339 91
177 180 184 174 168 177 170 153 128 127 126 172 175 183 184 179 172 171 168 170 165 166 171 176 178 178 184 187 189 193 200 202 208 217 211 245 267 273 280 288 289 296 281
187 178 186 182 192 192 169 160 165 168 172 195 188 176 175 174 176 187 182 176 183 176 172 179 185 187 190 196 199 202 209 219 228 226 235 245 252 273 280 274 274 266 259
197 192 190 190 198 193 173 174 176 176 181 187 182 171 174 186 183 189 190 184 179 178 179 175 183 188 191 193 200 203 210 218 228 244 263 272 279 289 299 302 285 276 260
204 200 198 196 198 191 184 195 192 183 181 189 193 199 186 186 191 186 191 190 201 196 190 192 195 195 192 193 198 204 210 218 223 233 246 254 280 296 56 118 132 124 113
209 206 202 201 200 198 187 194 197 192 195 195 206 200 201 196 196 200 196 201 205 211 209 201 208 206 200 199 211 230 238 248 250 241 217 186 135 130 127 190 262 252 231
215 212 209 206 207 203 198 199 201 198 198 203 201 199 201 205 210 209 210 205 209 209 213 211 210 216 219 231 250 260 265 263 253 225 201 158 149 146 243 279 287 290 288
217 217 215 213 209 208 207 205 206 207 206 203 201 202 200 205 210 213 215 215 219 221 217 214 217 224 232 241 247 252 260 256 242 209 219 236 244 254 261 266 267 271 279
220 218 218 218 216 214 212 212 211 211 211 207 204 204 204 206 208 213 217 217 220 218 221 224 228 235 246 248 246 247 242 242 239 230 232 246 253 258 266 278 289 294 295
222 219 219 217 216 213 213 214 214 213 212 211 212 211 205 207 207 210 215 217 220 218 225 225 233 239 246 249 247 244 246 241 237 237 238 246 258 270 279 283 291 295 294
229 221 217 217 219 216 215 215 217 216 213 213 213 212 211 212 215 217 220 221 224 222 224 224 227 231 241 246 249 249 252 254 250 244 242 244 252 263 279 290 293 299 299
230 228 224 221 219 219 218 217 215 215 218 219 218 215 214 216 215 216 221 225 226 227 230 233 231 230 234 241 242 250 252 254 253 251 252 253 256 264 283 299 303 303 302
236 229 225 224 222 219 217 215 213 214 214 214 215 215 215 218 220 220 223 225 228 229 231 234 238 244 248 253 256 252 249 247 249 250 252 252 253 263 285 294 301 304 302
238 229 224 221 221 219 217 216 216 215 212 212 212 215 217 220 223 227 228 226 228 228 232 237 240 243 245 248 249 252 256 253 251 252 250 250 258 275 296 303 311 310 308
237 231 225 222 221 219 218 217 217 213 212 215 215 216 214 217 222 227 229 229 233 234 236 240 242 243 240 229 221 216 219 276 260 258 259 263 270 290 292 306 311 310 308
233 229 226 223 222 221 219 214 213 215 214 210 208 211 212 215 218 224 226 225 227 230 234 242 245 242 241 229 220 200 195 183 206 266 263 268 264 277 296 308 308 306 307
240 235 225 224 223 219 219 220 222 221 215 215 217 215 212 211 213 217 220 220 223 228 231 237 243 243 238 238 234 224 222 225 194 238 275 265 270 281 299 302 307 308 310
314 248 234 226 226 222 222 223 223 221 221 219 216 211 211 212 212 215 219 224 226 230 235 239 244 244 243 241 238 235 236 243 246 233 257 265 291 291 297 309 309 314 317
30 330 242 227 228 226 227 224 224 225 222 221 218 213 212 212 214 214 216 220 224 231 239 244 247 248 250 251 253 251 247 241 252 264 278 286 296 302 305 301 301 323 320
Wind_Speed_850mb
26 30 29 31 28 29 32 31 33 36 39 38 37 36 35 33 33 31 32 31 28 28 28 27 29 31 34 35 30 33 31 31 31 31 33 32 31 31 32 32 32 32 30
25 31 27 27 29 29 34 38 39 41 43 44 44 43 39 33 34 34 36 35 28 26 27 26 32 30 33 35 34 34 33 33 33 32 33 31 29 26 27 28 29 28 26
22 24 25 25 27 30 37 42 44 46 48 48 49 45 44 41 42 41 39 33 26 23 25 25 30 32 31 28 28 28 27 26 28 30 34 30 29 28 25 21 22 25 25
15 21 14 13 24 26 31 39 43 40 56 52 55 52 42 36 29 27 25 21 17 19 19 22 29 31 30 27 24 23 22 21 21 31 30 31 29 27 29 29 25 21 21
25 26 13 11 11 20 33 31 42 45 33 45 48 34 34 30 23 23 21 17 17 17 19 20 24 25 24 19 19 19 19 18 18 25 28 26 21 21 21 24 26 25 24
35 30 21 18 20 15 14 9 52 53 49 47 30 23 18 14 14 17 15 15 17 18 19 19 20 19 20 19 18 19 19 19 18 19 20 16 10 13 10 7 7 12 16
36 31 17 16 14 18 11 16 21 51 38 35 20 13 12 8 10 13 15 17 16 17 18 18 19 18 16 16 17 16 16 14 12 12 12 9 9 12 12 9 7 7 6
34 34 25 22 22 25 27 32 27 22 18 24 21 12 14 15 16 16 16 17 17 16 15 16 17 17 17 16 15 14 13 11 9 7 4 2 3 3 2 3 4 3 2
35 35 37 32 28 20 20 27 31 14 15 15 16 15 14 17 16 15 14 13 14 14 12 12 12 13 14 15 16 15 13 12 11 10 8 6 8 9 8 8 7 5 5
41 39 34 39 32 21 21 27 35 33 27 24 22 21 18 15 12 11 13 12 9 9 11 11 11 12 13 13 14 13 12 11 11 11 12 10 10 11 10 10 10 9 10
48 45 41 38 36 31 34 34 33 34 31 21 17 19 17 15 16 14 11 8 10 9 9 10 10 10 11 11 12 11 11 10 9 8 10 9 9 11 10 8 9 9 10
55 54 50 45 38 34 33 33 38 31 26 21 19 16 18 19 17 14 12 10 8 8 8 8 9 10 10 10 10 10 9 8 8 9 9 7 9 8 3 5 6 5 6
58 57 56 51 47 43 43 39 36 32 28 25 23 20 18 18 17 14 13 11 9 8 7 9 10 10 10 9 9 9 9 9 9 7 6 9 14 14 11 4 11 13 11
62 64 60 56 51 48 46 45 40 37 34 32 28 26 22 19 17 14 13 11 11 11 10 10 11 10 9 8 9 11 11 10 8 5 5 13 17 11 2 21 20 18 19
64 66 67 63 59 56 53 50 47 42 37 34 31 27 25 24 20 17 15 13 13 13 13 13 13 11 11 11 11 11 10 10 9 9 9 18 20 21 21 19 19 16 16
63 71 72 69 65 60 58 55 50 45 40 37 34 32 28 25 22 20 17 17 16 15 15 13 12 11 11 11 11 10 10 11 12 13 14 15 18 20 22 19 18 18 18
65 71 75 73 71 66 64 59 53 49 44 41 37 33 30 28 25 23 22 19 20 17 15 15 14 13 12 12 11 10 11 12 14 16 18 18 18 21 22 21 19 21 22
61 70 75 78 73 68 66 62 58 52 49 46 41 36 33 29 25 23 22 21 20 18 19 17 16 14 14 13 13 12 13 15 16 18 19 20 20 19 20 21 23 27 31
61 67 71 78 78 75 69 65 61 58 53 47 43 40 36 32 30 28 25 23 21 20 19 18 17 16 15 14 14 13 15 18 20 20 20 20 18 17 18 23 27 29 33
59 65 72 80 81 79 73 69 65 61 57 52 48 43 39 36 32 29 27 25 23 21 20 18 17 15 14 13 13 14 15 17 20 21 21 22 19 18 21 28 29 32 35
57 63 72 83 87 87 85 81 74 69 63 59 53 48 43 39 34 32 30 28 26 24 21 20 18 16 16 13 14 13 15 17 20 22 21 21 21 23 26 31 36 38 38
49 59 66 77 87 90 89 86 80 74 68 62 57 55 49 43 38 38 35 30 27 25 22 20 19 16 14 12 13 11 7 8 15 20 26 24 25 27 27 35 40 39 38
33 45 57 66 79 88 88 84 83 79 71 67 65 62 53 46 43 40 37 33 32 28 24 22 19 16 15 14 15 14 6 6 3 15 24 24 22 25 30 38 35 35 34
14 29 42 54 66 79 88 91 88 81 77 72 68 62 56 51 46 43 40 36 31 26 24 22 20 17 16 16 13 12 14 15 7 5 15 19 23 28 33 28 30 28 30
4 14 26 41 58 68 85 86 85 80 73 73 72 66 60 55 51 46 41 35 30 26 24 22 22 20 19 17 14 12 11 12 14 13 12 12 25 28 24 28 25 23 27
15 4 15 31 43 58 75 86 86 84 81 78 69 68 64 58 53 47 41 36 32 29 26 25 24 22 21 19 17 14 13 10 10 10 12 16 25 23 27 18 17 25 23
Wind_Direction_850mb
202 200 199 195 193 189 189 189 185 177 170 166 160 155 144 139 134 131 121 124 127 129 133 126 125 111 115 116 121 118 117 116 114 112 109 105 100 101 98 97 95 98 100
203 199 200 203 204 201 199 198 197 189 179 170 161 155 146 145 142 134 128 122 128 132 125 125 124 131 124 120 122 119 117 113 111 111 105 100 99 99 98 94 93 92 95
195 190 197 211 216 220 208 209 202 194 179 163 157 154 150 145 138 133 133 137 135 113 121 120 124 116 129 135 133 126 121 120 117 110 91 94 101 104 100 101 104 95 92
186 176 173 236 222 214 218 218 212 203 199 178 168 158 148 152 151 148 159 164 152 137 130 131 135 134 140 143 136 129 124 123 124 105 105 100 93 108 108 101 94 102 96
146 159 173 187 137 219 202 220 202 186 125 126 139 154 154 160 166 174 179 176 164 155 144 140 140 147 149 146 141 138 129 126 131 108 123 117 104 107 122 126 118 113 107
149 143 154 134 141 101 92 37 168 144 133 137 138 145 152 155 180 177 177 166 160 160 157 150 145 148 150 151 148 138 130 126 127 118 95 114 111 93 106 112 109 117 111
168 159 169 186 151 151 122 121 53 105 124 129 134 153 124 133 151 156 150 146 151 149 154 158 161 162 157 157 157 151 144 137 134 131 115 100 90 83 80 76 85 111 135
169 174 166 175 165 135 126 120 134 111 112 134 149 174 172 183 178 164 161 157 154 153 155 157 158 165 170 175 177 176 174 172 174 173 165 274 327 330 291 320 326 339 91
177 180 184 174 168 177 170 153 128 127 126 172 175 183 184 179 172 171 168 170 165 166 171 176 178 178 184 187 189 193 200 202 208 217 211 245 267 273 280 288 289 296 281
187 178 186 182 192 192 169 160 165 168 172 195 188 176 175 174 176 187 182 176 183 176 172 179 185 187 190 196 199 202 209 219 228 226 235 245 252 273 280 274 274 266 259
197 192 190 190 198 193 173 174 176 176 181 187 182 171 174 186 183 189 190 184 179 178 179 175 183 188 191 193 200 203 210 218 228 244 263 272 279 289 299 302 285 276 260
204 200 198 196 198 191 184 195 192 183 181 189 193 199 186 186 191 186 191 190 201 196 190 192 195 195 192 193 198 204 210 218 223 233 246 254 280 296 56 118 132 124 113
209 206 202 201 200 198 187 194 197 192 195 195 206 200 201 196 196 200 196 201 205 211 209 201 208 206 200 199 211 230 238 248 250 241 217 186 135 130 127 190 262 252 231
215 212 209 206 207 203 198 199 201 198 198 203 201 199 201 205 210 209 210 205 209 209 213 211 210 216 219 231 250 260 265 263 253 225 201 158 149 146 243 279 287 290 288
217 217 215 213 209 208 207 205 206 207 206 203 201 202 200 205 210 213 215 215 219 221 217 214 217 224 232 241 247 252 260 256 242 209 219 236 244 254 261 266 267 271 279
220 218 218 218 216 214 212 212 211 211 211 207 204 204 204 206 208 213 217 217 220 218 221 224 228 235 246 248 246 247 242 242 239 230 232 246 253 258 266 278 289 294 295
222 219 219 217 216 213 213 214 214 213 212 211 212 211 205 207 207 210 215 217 220 218 225 225 233 239 246 249 247 244 246 241 237 237 238 246 258 270 279 283 291 295 294
229 221 217 217 219 216 215 215 217 216 213 213 213 212 211 212 215 217 220 221 224 222 224 224 227 231 241 246 249 249 252 254 250 244 242 244 252 263 279 290 293 299 299
230 228 224 221 219 219 218 217 215 215 218 219 218 215 214 216 215 216 221 225 226 227 230 233 231 230 234 241 242 250 252 254 253 251 252 253 256 264 283 299 303 303 302
236 229 225 224 222 219 217 215 213 214 214 214 215 215 215 218 220 220 223 225 228 229 231 234 238 244 248 253 256 252 249 247 249 250 252 252 253 263 285 294 301 304 302
238 229 224 221 221 219 217 216 216 215 212 212 212 215 217 220 223 227 228 226 228 228 232 237 240 243 245 248 249 252 256 253 251 252 250 250 258 275 296 303 311 310 308
237 231 225 222 221 219 218 217 217 213 212 215 215 216 214 217 222 227 229 229 233 234 236 240 242 243 240 229 221 216 219 276 260 258 259 263 270 290 292 306 311 310 308
233 229 226 223 222 221 219 214 213 215 214 210 208 211 212 215 218 224 226 225 227 230 234 242 245 242 241 229 220 200 195 183 206 266 263 268 264 277 296 308 308 306 307
240 235 225 224 223 219 219 220 222 221 215 215 217 215 212 211 213 217 220 220 223 228 231 237 243 243 238 238 234 224 222 225 194 238 275 265 270 281 299 302 307 308 310
314 248 234 226 226 222 222 223 223 221 221 219 216 211 211 212 212 215 219 224 226 230 235 239 244 244 243 241 238 235 236 243 246 233 257 265 291 291 297 309 309 314 317
30 330 242 227 228 226 227 224 224 225 222 221 218 213 212 212 214 214 216 220 224 231 239 244 247 248 250 251 253 251 247 241 252 264 278 286 296 302 305 301 301 323 320